Time,TemperatureF,DewpointF,PressureIn,WindDirection,WindDirectionDegrees,WindSpeedMPH,WindSpeedGustMPH,Humidity,HourlyPrecipIn,Conditions,Clouds,dailyrainin,SoftwareType,DateUTC
2013-06-17 00:01:00,65.0,59.7,29.36,West,270,0.0,9.0,83,0.00,,,0.00,Weather View 32 v70,2013-06-17 04:01:00,
2013-06-17 00:06:00,65.0,60.0,29.36,WSW,247,2.0,9.0,84,0.00,,,0.00,Weather View 32 v70,2013-06-17 04:06:00,
2013-06-17 00:11:00,65.0,60.0,29.36,West,270,2.0,9.0,84,0.00,,,0.00,Weather View 32 v70,2013-06-17 04:11:00,
2013-06-17 00:16:00,65.0,60.0,29.36,West,270,1.0,7.0,84,0.00,,,0.00,Weather View 32 v70,2013-06-17 04:16:00,
2013-06-17 00:21:00,65.0,60.4,29.36,West,270,1.0,7.0,85,0.00,,,0.00,Weather View 32 v70,2013-06-17 04:21:00,
2013-06-17 00:26:00,64.0,59.4,29.36,West,270,0.0,7.0,85,0.00,,,0.00,Weather View 32 v70,2013-06-17 04:26:00,
2013-06-17 00:31:00,64.0,59.7,29.37,West,270,0.0,7.0,86,0.00,,,0.00,Weather View 32 v70,2013-06-17 04:31:00,
2013-06-17 00:36:00,63.0,59.1,29.37,West,270,0.0,7.0,87,0.00,,,0.00,Weather View 32 v70,2013-06-17 04:36:00,
2013-06-17 00:41:00,63.0,59.4,29.37,West,270,0.0,7.0,88,0.00,,,0.00,Weather View 32 v70,2013-06-17 04:41:00,
2013-06-17 00:46:00,62.0,59.3,29.37,West,270,0.0,7.0,91,0.00,,,0.00,Weather View 32 v70,2013-06-17 04:46:00,
2013-06-17 00:51:00,62.0,59.6,29.38,West,270,0.0,7.0,92,0.00,,,0.00,Weather View 32 v70,2013-06-17 04:51:00,
2013-06-17 00:56:00,62.0,59.9,29.38,West,270,0.0,7.0,93,0.00,,,0.00,Weather View 32 v70,2013-06-17 04:56:00,
2013-06-17 01:01:00,62.0,59.9,29.38,West,270,0.0,7.0,93,0.00,,,0.00,Weather View 32 v70,2013-06-17 05:01:00,
2013-06-17 01:06:00,62.0,59.9,29.38,West,270,0.0,7.0,93,0.00,,,0.00,Weather View 32 v70,2013-06-17 05:06:00,
2013-06-17 01:11:00,62.0,59.9,29.38,West,270,1.0,7.0,93,0.00,,,0.00,Weather View 32 v70,2013-06-17 05:11:00,
2013-06-17 01:16:00,61.0,58.7,29.38,West,270,0.0,4.0,92,0.00,,,0.00,Weather View 32 v70,2013-06-17 05:16:00,
2013-06-17 01:21:00,61.0,58.7,29.39,West,270,0.0,3.0,92,0.00,,,0.00,Weather View 32 v70,2013-06-17 05:21:00,
2013-06-17 01:26:00,60.0,57.7,29.39,West,270,0.0,3.0,92,0.00,,,0.00,Weather View 32 v70,2013-06-17 05:26:00,
2013-06-17 01:31:00,60.0,58.3,29.40,West,270,0.0,3.0,94,0.00,,,0.00,Weather View 32 v70,2013-06-17 05:31:00,
2013-06-17 01:36:00,59.0,57.9,29.40,West,270,0.0,3.0,96,0.00,,,0.00,Weather View 32 v70,2013-06-17 05:36:00,
2013-06-17 01:41:00,59.0,58.1,29.41,West,270,0.0,3.0,97,0.00,,,0.00,Weather View 32 v70,2013-06-17 05:41:00,
2013-06-17 01:46:00,59.0,58.4,29.41,West,270,0.0,3.0,98,0.00,,,0.00,Weather View 32 v70,2013-06-17 05:46:00,
2013-06-17 01:51:00,59.0,58.4,29.40,West,270,0.0,3.0,98,0.00,,,0.00,Weather View 32 v70,2013-06-17 05:51:00,
2013-06-17 01:56:00,58.0,57.4,29.40,West,270,0.0,3.0,98,0.00,,,0.00,Weather View 32 v70,2013-06-17 05:56:00,
2013-06-17 02:01:00,58.0,57.4,29.41,West,270,0.0,3.0,98,0.00,,,0.00,Weather View 32 v70,2013-06-17 06:01:00,
2013-06-17 02:06:00,58.0,57.4,29.41,West,270,0.0,3.0,98,0.00,,,0.00,Weather View 32 v70,2013-06-17 06:06:00,
2013-06-17 02:11:00,58.0,57.4,29.41,West,270,0.0,3.0,98,0.00,,,0.00,Weather View 32 v70,2013-06-17 06:11:00,
2013-06-17 02:16:00,58.0,57.4,29.41,West,270,0.0,0.0,98,0.00,,,0.00,Weather View 32 v70,2013-06-17 06:16:00,
2013-06-17 02:21:00,58.0,57.4,29.41,West,270,0.0,0.0,98,0.00,,,0.00,Weather View 32 v70,2013-06-17 06:21:00,
2013-06-17 02:26:00,58.0,57.4,29.41,West,270,0.0,0.0,98,0.00,,,0.00,Weather View 32 v70,2013-06-17 06:26:00,
2013-06-17 02:31:00,57.0,56.4,29.41,West,270,0.0,0.0,98,0.00,,,0.00,Weather View 32 v70,2013-06-17 06:31:00,
2013-06-17 02:36:00,57.0,56.4,29.41,West,270,0.0,0.0,98,0.00,,,0.00,Weather View 32 v70,2013-06-17 06:36:00,
2013-06-17 02:41:00,58.0,57.4,29.41,West,270,1.0,2.0,98,0.00,,,0.00,Weather View 32 v70,2013-06-17 06:41:00,
2013-06-17 02:46:00,58.0,57.4,29.41,West,270,0.0,2.0,98,0.00,,,0.00,Weather View 32 v70,2013-06-17 06:46:00,
2013-06-17 02:51:00,57.0,56.4,29.41,West,270,0.0,2.0,98,0.00,,,0.00,Weather View 32 v70,2013-06-17 06:51:00,
2013-06-17 02:56:00,57.0,56.4,29.41,West,270,0.0,2.0,98,0.00,,,0.00,Weather View 32 v70,2013-06-17 06:56:00,
2013-06-17 03:01:00,57.0,56.4,29.42,West,270,0.0,2.0,98,0.00,,,0.00,Weather View 32 v70,2013-06-17 07:01:00,
2013-06-17 03:06:00,57.0,56.4,29.42,West,270,0.0,2.0,98,0.00,,,0.00,Weather View 32 v70,2013-06-17 07:06:00,
2013-06-17 03:11:00,57.0,56.4,29.41,West,270,0.0,2.0,98,0.00,,,0.00,Weather View 32 v70,2013-06-17 07:11:00,
2013-06-17 03:16:00,57.0,56.4,29.41,West,270,0.0,2.0,98,0.00,,,0.00,Weather View 32 v70,2013-06-17 07:16:00,
2013-06-17 03:21:00,57.0,56.4,29.41,West,270,0.0,2.0,98,0.00,,,0.00,Weather View 32 v70,2013-06-17 07:21:00,
2013-06-17 03:26:00,57.0,56.4,29.41,West,270,0.0,2.0,98,0.00,,,0.00,Weather View 32 v70,2013-06-17 07:26:00,
2013-06-17 03:31:00,57.0,56.4,29.41,West,270,0.0,2.0,98,0.00,,,0.00,Weather View 32 v70,2013-06-17 07:31:00,
2013-06-17 03:36:00,57.0,56.4,29.41,West,270,0.0,2.0,98,0.00,,,0.00,Weather View 32 v70,2013-06-17 07:36:00,
2013-06-17 03:41:00,57.0,56.4,29.41,West,270,0.0,2.0,98,0.00,,,0.00,Weather View 32 v70,2013-06-17 07:41:00,
2013-06-17 03:46:00,57.0,56.4,29.41,West,270,0.0,0.0,98,0.00,,,0.00,Weather View 32 v70,2013-06-17 07:46:00,
2013-06-17 03:51:00,57.0,56.4,29.41,West,270,0.0,0.0,98,0.00,,,0.00,Weather View 32 v70,2013-06-17 07:51:00,
2013-06-17 03:56:00,57.0,56.4,29.41,West,270,0.0,0.0,98,0.00,,,0.00,Weather View 32 v70,2013-06-17 07:56:00,
2013-06-17 04:01:00,57.0,56.4,29.41,West,270,0.0,0.0,98,0.00,,,0.00,Weather View 32 v70,2013-06-17 08:01:00,
2013-06-17 04:06:00,57.0,56.4,29.41,West,270,0.0,0.0,98,0.00,,,0.00,Weather View 32 v70,2013-06-17 08:06:00,
2013-06-17 04:11:00,57.0,56.4,29.41,West,270,0.0,0.0,98,0.00,,,0.00,Weather View 32 v70,2013-06-17 08:11:00,
2013-06-17 04:16:00,57.0,56.4,29.41,West,270,0.0,0.0,98,0.00,,,0.00,Weather View 32 v70,2013-06-17 08:16:00,
2013-06-17 04:21:00,56.0,55.2,29.43,West,270,0.0,0.0,97,0.00,,,0.00,Weather View 32 v70,2013-06-17 08:21:00,
2013-06-17 04:26:00,57.0,56.4,29.43,West,270,0.0,0.0,98,0.00,,,0.00,Weather View 32 v70,2013-06-17 08:26:00,
2013-06-17 04:31:00,57.0,56.4,29.42,West,270,1.0,1.0,98,0.00,,,0.00,Weather View 32 v70,2013-06-17 08:31:00,
2013-06-17 04:36:00,57.0,56.4,29.42,West,270,0.0,1.0,98,0.00,,,0.00,Weather View 32 v70,2013-06-17 08:36:00,
2013-06-17 04:41:00,57.0,56.4,29.42,West,270,0.0,1.0,98,0.00,,,0.00,Weather View 32 v70,2013-06-17 08:41:00,
2013-06-17 04:46:00,57.0,56.4,29.42,West,270,0.0,1.0,98,0.00,,,0.00,Weather View 32 v70,2013-06-17 08:46:00,
2013-06-17 04:51:00,56.0,55.2,29.43,West,270,0.0,1.0,97,0.00,,,0.00,Weather View 32 v70,2013-06-17 08:51:00,
2013-06-17 04:56:00,56.0,55.2,29.43,West,270,0.0,1.0,97,0.00,,,0.00,Weather View 32 v70,2013-06-17 08:56:00,
2013-06-17 05:01:00,56.0,55.2,29.44,West,270,0.0,1.0,97,0.00,,,0.00,Weather View 32 v70,2013-06-17 09:01:00,
2013-06-17 05:06:00,56.0,55.2,29.44,West,270,0.0,1.0,97,0.00,,,0.00,Weather View 32 v70,2013-06-17 09:06:00,
2013-06-17 05:11:00,56.0,55.2,29.44,West,270,1.0,1.0,97,0.00,,,0.00,Weather View 32 v70,2013-06-17 09:11:00,
2013-06-17 05:16:00,56.0,55.2,29.44,West,270,2.0,3.0,97,0.00,,,0.00,Weather View 32 v70,2013-06-17 09:16:00,
2013-06-17 05:21:00,56.0,55.2,29.43,West,270,1.0,3.0,97,0.00,,,0.00,Weather View 32 v70,2013-06-17 09:21:00,
2013-06-17 05:26:00,57.0,56.4,29.43,West,270,0.0,3.0,98,0.00,,,0.00,Weather View 32 v70,2013-06-17 09:26:00,
2013-06-17 05:31:00,56.0,55.2,29.43,West,270,0.0,3.0,97,0.00,,,0.00,Weather View 32 v70,2013-06-17 09:31:00,
2013-06-17 05:36:00,56.0,55.2,29.43,West,270,0.0,3.0,97,0.00,,,0.00,Weather View 32 v70,2013-06-17 09:36:00,
2013-06-17 05:41:00,56.0,55.2,29.43,West,270,0.0,3.0,97,0.00,,,0.00,Weather View 32 v70,2013-06-17 09:41:00,
2013-06-17 05:46:00,56.0,55.2,29.43,West,270,0.0,3.0,97,0.00,,,0.00,Weather View 32 v70,2013-06-17 09:46:00,
2013-06-17 05:51:00,56.0,55.2,29.43,West,270,0.0,3.0,97,0.00,,,0.00,Weather View 32 v70,2013-06-17 09:51:00,
2013-06-17 05:56:00,57.0,56.4,29.43,West,270,1.0,3.0,98,0.00,,,0.00,Weather View 32 v70,2013-06-17 09:56:00,
2013-06-17 06:01:00,57.0,56.4,29.43,West,270,1.0,3.0,98,0.00,,,0.00,Weather View 32 v70,2013-06-17 10:01:00,
2013-06-17 06:06:00,58.0,57.4,29.43,West,270,2.0,5.0,98,0.00,,,0.00,Weather View 32 v70,2013-06-17 10:06:00,
2013-06-17 06:11:00,58.0,57.4,29.43,West,270,0.0,5.0,98,0.00,,,0.00,Weather View 32 v70,2013-06-17 10:11:00,
2013-06-17 06:16:00,59.0,58.4,29.43,WSW,247,5.0,7.0,98,0.00,,,0.00,Weather View 32 v70,2013-06-17 10:16:00,
2013-06-17 06:21:00,59.0,58.1,29.42,NW,315,3.0,7.0,97,0.00,,,0.00,Weather View 32 v70,2013-06-17 10:21:00,
2013-06-17 06:26:00,60.0,59.1,29.42,West,270,0.0,7.0,97,0.00,,,0.00,Weather View 32 v70,2013-06-17 10:26:00,
2013-06-17 06:31:00,60.0,59.1,29.42,West,270,0.0,7.0,97,0.00,,,0.00,Weather View 32 v70,2013-06-17 10:31:00,
2013-06-17 06:36:00,60.0,59.4,29.42,West,270,0.0,7.0,98,0.00,,,0.00,Weather View 32 v70,2013-06-17 10:36:00,
2013-06-17 06:41:00,60.0,59.4,29.43,West,270,0.0,7.0,98,0.00,,,0.00,Weather View 32 v70,2013-06-17 10:41:00,
2013-06-17 06:46:00,60.0,59.4,29.43,West,270,2.0,7.0,98,0.00,,,0.00,Weather View 32 v70,2013-06-17 10:46:00,
2013-06-17 06:51:00,60.0,58.9,29.43,West,270,2.0,7.0,96,0.00,,,0.00,Weather View 32 v70,2013-06-17 10:51:00,
2013-06-17 06:56:00,61.0,59.6,29.43,West,270,1.0,7.0,95,0.00,,,0.00,Weather View 32 v70,2013-06-17 10:56:00,
2013-06-17 07:01:00,61.0,59.6,29.43,West,270,2.0,7.0,95,0.00,,,0.00,Weather View 32 v70,2013-06-17 11:01:00,
2013-06-17 07:06:00,62.0,59.9,29.43,West,270,3.0,7.0,93,0.00,,,0.00,Weather View 32 v70,2013-06-17 11:06:00,
2013-06-17 07:11:00,63.0,60.3,29.42,West,270,4.0,7.0,91,0.00,,,0.00,Weather View 32 v70,2013-06-17 11:11:00,
2013-06-17 07:16:00,63.0,60.0,29.42,West,270,6.0,8.0,90,0.00,,,0.00,Weather View 32 v70,2013-06-17 11:16:00,
2013-06-17 07:21:00,64.0,60.4,29.42,West,270,4.0,8.0,88,0.00,,,0.00,Weather View 32 v70,2013-06-17 11:21:00,
2013-06-17 07:26:00,65.0,61.7,29.42,West,270,4.0,8.0,89,0.00,,,0.00,Weather View 32 v70,2013-06-17 11:26:00,
2013-06-17 07:31:00,65.0,61.7,29.43,WSW,247,7.0,9.0,89,0.00,,,0.00,Weather View 32 v70,2013-06-17 11:31:00,
2013-06-17 07:36:00,65.0,60.7,29.43,West,270,4.0,9.0,86,0.00,,,0.00,Weather View 32 v70,2013-06-17 11:36:00,
2013-06-17 07:41:00,65.0,61.0,29.43,West,270,3.0,9.0,87,0.00,,,0.00,Weather View 32 v70,2013-06-17 11:41:00,
2013-06-17 07:46:00,66.0,61.3,29.43,West,270,2.0,9.0,85,0.00,,,0.00,Weather View 32 v70,2013-06-17 11:46:00,
2013-06-17 07:51:00,66.0,61.7,29.43,WNW,292,4.0,9.0,86,0.00,,,0.00,Weather View 32 v70,2013-06-17 11:51:00,
2013-06-17 07:56:00,66.0,61.7,29.43,West,270,4.0,9.0,86,0.00,,,0.00,Weather View 32 v70,2013-06-17 11:56:00,
2013-06-17 08:01:00,67.0,61.6,29.42,NW,315,4.0,9.0,83,0.00,,,0.00,Weather View 32 v70,2013-06-17 12:01:00,
2013-06-17 08:06:00,67.0,62.3,29.42,West,270,5.0,9.0,85,0.00,,,0.00,Weather View 32 v70,2013-06-17 12:06:00,
2013-06-17 08:11:00,67.0,62.0,29.43,WNW,292,5.0,9.0,84,0.00,,,0.00,Weather View 32 v70,2013-06-17 12:11:00,
2013-06-17 08:16:00,68.0,61.9,29.43,West,270,5.0,10.0,81,0.00,,,0.00,Weather View 32 v70,2013-06-17 12:16:00,
2013-06-17 08:21:00,68.0,61.9,29.42,West,270,5.0,10.0,81,0.00,,,0.00,Weather View 32 v70,2013-06-17 12:21:00,
2013-06-17 08:26:00,68.0,62.3,29.42,West,270,4.0,10.0,82,0.00,,,0.00,Weather View 32 v70,2013-06-17 12:26:00,
2013-06-17 08:31:00,69.0,62.2,29.41,NW,315,3.0,13.0,79,0.00,,,0.00,Weather View 32 v70,2013-06-17 12:31:00,
2013-06-17 08:36:00,69.0,62.2,29.41,West,270,3.0,13.0,79,0.00,,,0.00,Weather View 32 v70,2013-06-17 12:36:00,
2013-06-17 08:41:00,69.0,61.8,29.41,NW,315,8.0,13.0,78,0.00,,,0.00,Weather View 32 v70,2013-06-17 12:41:00,
2013-06-17 08:46:00,70.0,62.4,29.41,WSW,247,9.0,13.0,77,0.00,,,0.00,Weather View 32 v70,2013-06-17 12:46:00,
2013-06-17 08:51:00,71.0,63.0,29.41,NW,315,3.0,13.0,76,0.00,,,0.00,Weather View 32 v70,2013-06-17 12:51:00,
2013-06-17 08:56:00,71.0,62.3,29.41,WNW,292,6.0,13.0,74,0.00,,,0.00,Weather View 32 v70,2013-06-17 12:56:00,
2013-06-17 09:01:00,71.0,61.9,29.41,NW,315,7.0,13.0,73,0.00,,,0.00,Weather View 32 v70,2013-06-17 13:01:00,
2013-06-17 09:06:00,72.0,62.0,29.41,SW,225,2.0,13.0,71,0.00,,,0.00,Weather View 32 v70,2013-06-17 13:06:00,
2013-06-17 09:11:00,72.0,61.2,29.41,West,270,7.0,13.0,69,0.00,,,0.00,Weather View 32 v70,2013-06-17 13:11:00,
2013-06-17 09:16:00,72.0,61.6,29.41,WSW,247,7.0,13.0,70,0.00,,,0.00,Weather View 32 v70,2013-06-17 13:16:00,
2013-06-17 09:21:00,72.0,61.2,29.41,West,270,3.0,13.0,69,0.00,,,0.00,Weather View 32 v70,2013-06-17 13:21:00,
2013-06-17 09:26:00,72.0,61.2,29.41,West,270,4.0,13.0,69,0.00,,,0.00,Weather View 32 v70,2013-06-17 13:26:00,
2013-06-17 09:31:00,73.0,61.8,29.41,WNW,292,4.0,12.0,68,0.00,,,0.00,Weather View 32 v70,2013-06-17 13:31:00,
2013-06-17 09:36:00,73.0,61.4,29.41,West,270,7.0,12.0,67,0.00,,,0.00,Weather View 32 v70,2013-06-17 13:36:00,
2013-06-17 09:41:00,74.0,61.0,29.40,WNW,292,5.0,12.0,64,0.00,,,0.00,Weather View 32 v70,2013-06-17 13:41:00,
2013-06-17 09:46:00,74.0,61.4,29.40,WNW,292,1.0,12.0,65,0.00,,,0.00,Weather View 32 v70,2013-06-17 13:46:00,
2013-06-17 09:51:00,75.0,61.1,29.40,NW,315,1.0,12.0,62,0.00,,,0.00,Weather View 32 v70,2013-06-17 13:51:00,
2013-06-17 09:56:00,75.0,61.1,29.40,West,270,4.0,12.0,62,0.00,,,0.00,Weather View 32 v70,2013-06-17 13:56:00,
2013-06-17 10:01:00,75.0,60.6,29.40,West,270,4.0,13.0,61,0.00,,,0.00,Weather View 32 v70,2013-06-17 14:01:00,
2013-06-17 10:06:00,75.0,60.1,29.40,West,270,5.0,13.0,60,0.00,,,0.00,Weather View 32 v70,2013-06-17 14:06:00,
2013-06-17 10:11:00,75.0,60.1,29.40,West,270,4.0,13.0,60,0.00,,,0.00,Weather View 32 v70,2013-06-17 14:11:00,
2013-06-17 10:16:00,75.0,60.6,29.40,West,270,4.0,13.0,61,0.00,,,0.00,Weather View 32 v70,2013-06-17 14:16:00,
2013-06-17 10:21:00,75.0,60.1,29.40,NW,315,6.0,13.0,60,0.00,,,0.00,Weather View 32 v70,2013-06-17 14:21:00,
2013-06-17 10:26:00,75.0,61.1,29.40,West,270,6.0,13.0,62,0.00,,,0.00,Weather View 32 v70,2013-06-17 14:26:00,
2013-06-17 10:31:00,76.0,60.1,29.39,West,270,3.0,13.0,58,0.00,,,0.00,Weather View 32 v70,2013-06-17 14:31:00,
2013-06-17 10:36:00,76.0,60.6,29.39,WSW,247,9.0,13.0,59,0.00,,,0.00,Weather View 32 v70,2013-06-17 14:36:00,
2013-06-17 10:41:00,76.0,61.1,29.39,WNW,292,6.0,13.0,60,0.00,,,0.00,Weather View 32 v70,2013-06-17 14:41:00,
2013-06-17 10:46:00,76.0,59.6,29.39,SW,225,4.0,13.0,57,0.00,,,0.00,Weather View 32 v70,2013-06-17 14:46:00,
2013-06-17 10:51:00,76.0,59.1,29.39,West,270,5.0,13.0,56,0.00,,,0.00,Weather View 32 v70,2013-06-17 14:51:00,
2013-06-17 10:56:00,76.0,61.1,29.39,West,270,4.0,13.0,60,0.00,,,0.00,Weather View 32 v70,2013-06-17 14:56:00,
2013-06-17 11:01:00,76.0,60.1,29.38,NW,315,6.0,12.0,58,0.00,,,0.00,Weather View 32 v70,2013-06-17 15:01:00,
2013-06-17 11:06:00,77.0,59.5,29.38,West,270,6.0,12.0,55,0.00,,,0.00,Weather View 32 v70,2013-06-17 15:06:00,
2013-06-17 11:11:00,77.0,60.5,29.38,WSW,247,2.0,12.0,57,0.00,,,0.00,Weather View 32 v70,2013-06-17 15:11:00,
2013-06-17 11:16:00,77.0,58.5,29.38,West,270,2.0,12.0,53,0.00,,,0.00,Weather View 32 v70,2013-06-17 15:16:00,
2013-06-17 11:21:00,77.0,59.5,29.37,West,270,4.0,12.0,55,0.00,,,0.00,Weather View 32 v70,2013-06-17 15:21:00,
2013-06-17 11:26:00,77.0,59.0,29.37,WSW,247,6.0,12.0,54,0.00,,,0.00,Weather View 32 v70,2013-06-17 15:26:00,
2013-06-17 11:31:00,77.0,61.0,29.38,NW,315,6.0,12.0,58,0.00,,,0.00,Weather View 32 v70,2013-06-17 15:31:00,
2013-06-17 11:36:00,78.0,62.5,29.38,WSW,247,10.0,12.0,59,0.00,,,0.00,Weather View 32 v70,2013-06-17 15:36:00,
2013-06-17 11:41:00,78.0,59.4,29.37,West,270,6.0,12.0,53,0.00,,,0.00,Weather View 32 v70,2013-06-17 15:41:00,
2013-06-17 11:46:00,78.0,61.5,29.37,NW,315,3.0,12.0,57,0.00,,,0.00,Weather View 32 v70,2013-06-17 15:46:00,
2013-06-17 11:51:00,78.0,59.4,29.37,West,270,10.0,12.0,53,0.00,,,0.00,Weather View 32 v70,2013-06-17 15:51:00,
2013-06-17 11:56:00,78.0,59.4,29.37,SW,225,6.0,12.0,53,0.00,,,0.00,Weather View 32 v70,2013-06-17 15:56:00,
2013-06-17 12:01:00,78.0,61.5,29.37,West,270,3.0,12.0,57,0.00,,,0.00,Weather View 32 v70,2013-06-17 16:01:00,
2013-06-17 12:06:00,79.0,60.9,29.37,North,360,5.0,12.0,54,0.00,,,0.00,Weather View 32 v70,2013-06-17 16:06:00,
2013-06-17 12:11:00,79.0,60.9,29.36,West,270,6.0,12.0,54,0.00,,,0.00,Weather View 32 v70,2013-06-17 16:11:00,
2013-06-17 12:16:00,79.0,60.9,29.36,WSW,247,6.0,12.0,54,0.00,,,0.00,Weather View 32 v70,2013-06-17 16:16:00,
2013-06-17 12:21:00,79.0,60.9,29.36,NW,315,4.0,13.0,54,0.00,,,0.00,Weather View 32 v70,2013-06-17 16:21:00,
2013-06-17 12:26:00,79.0,59.8,29.36,West,270,6.0,13.0,52,0.00,,,0.00,Weather View 32 v70,2013-06-17 16:26:00,
2013-06-17 12:31:00,79.0,59.3,29.36,WSW,247,4.0,13.0,51,0.00,,,0.00,Weather View 32 v70,2013-06-17 16:31:00,
2013-06-17 12:36:00,79.0,59.3,29.36,West,270,5.0,13.0,51,0.00,,,0.00,Weather View 32 v70,2013-06-17 16:36:00,
2013-06-17 12:41:00,79.0,59.3,29.36,West,270,7.0,13.0,51,0.00,,,0.00,Weather View 32 v70,2013-06-17 16:41:00,
2013-06-17 12:46:00,79.0,58.1,29.36,West,270,6.0,13.0,49,0.00,,,0.00,Weather View 32 v70,2013-06-17 16:46:00,
2013-06-17 12:51:00,79.0,58.7,29.36,West,270,6.0,13.0,50,0.00,,,0.00,Weather View 32 v70,2013-06-17 16:51:00,
2013-06-17 12:56:00,80.0,59.6,29.36,West,270,5.0,13.0,50,0.00,,,0.00,Weather View 32 v70,2013-06-17 16:56:00,
2013-06-17 13:01:00,80.0,58.5,29.36,West,270,8.0,17.0,48,0.00,,,0.00,Weather View 32 v70,2013-06-17 17:01:00,
2013-06-17 13:06:00,80.0,57.9,29.36,WNW,292,6.0,17.0,47,0.00,,,0.00,Weather View 32 v70,2013-06-17 17:06:00,
2013-06-17 13:11:00,80.0,58.5,29.36,West,270,9.0,17.0,48,0.00,,,0.00,Weather View 32 v70,2013-06-17 17:11:00,
2013-06-17 13:16:00,80.0,59.1,29.36,NW,315,2.0,17.0,49,0.00,,,0.00,Weather View 32 v70,2013-06-17 17:16:00,
2013-06-17 13:21:00,80.0,57.3,29.36,NW,315,7.0,17.0,46,0.00,,,0.00,Weather View 32 v70,2013-06-17 17:21:00,
2013-06-17 13:26:00,79.0,57.0,29.36,West,270,6.0,17.0,47,0.00,,,0.00,Weather View 32 v70,2013-06-17 17:26:00,
2013-06-17 13:31:00,80.0,57.3,29.35,West,270,9.0,17.0,46,0.00,,,0.00,Weather View 32 v70,2013-06-17 17:31:00,
2013-06-17 13:36:00,80.0,57.9,29.35,West,270,6.0,17.0,47,0.00,,,0.00,Weather View 32 v70,2013-06-17 17:36:00,
2013-06-17 13:41:00,80.0,56.7,29.35,WSW,247,7.0,17.0,45,0.00,,,0.00,Weather View 32 v70,2013-06-17 17:41:00,
2013-06-17 13:46:00,80.0,56.7,29.35,West,270,6.0,17.0,45,0.00,,,0.00,Weather View 32 v70,2013-06-17 17:46:00,
2013-06-17 13:51:00,80.0,57.3,29.35,West,270,6.0,17.0,46,0.00,,,0.00,Weather View 32 v70,2013-06-17 17:51:00,
2013-06-17 13:56:00,80.0,59.1,29.35,WSW,247,5.0,17.0,49,0.00,,,0.00,Weather View 32 v70,2013-06-17 17:56:00,
2013-06-17 14:01:00,80.0,59.1,29.34,West,270,1.0,17.0,49,0.00,,,0.00,Weather View 32 v70,2013-06-17 18:01:00,
2013-06-17 14:06:00,80.0,58.5,29.34,SW,225,9.0,15.0,48,0.00,,,0.00,Weather View 32 v70,2013-06-17 18:06:00,
2013-06-17 14:11:00,81.0,57.6,29.33,WSW,247,8.0,15.0,45,0.00,,,0.00,Weather View 32 v70,2013-06-17 18:11:00,
2013-06-17 14:16:00,81.0,60.0,29.33,West,270,5.0,13.0,49,0.00,,,0.00,Weather View 32 v70,2013-06-17 18:16:00,
2013-06-17 14:21:00,81.0,57.6,29.33,West,270,7.0,13.0,45,0.00,,,0.00,Weather View 32 v70,2013-06-17 18:21:00,
2013-06-17 14:26:00,81.0,57.6,29.33,West,270,7.0,16.0,45,0.00,,,0.00,Weather View 32 v70,2013-06-17 18:26:00,
2013-06-17 14:31:00,81.0,58.2,29.33,West,270,10.0,16.0,46,0.00,,,0.00,Weather View 32 v70,2013-06-17 18:31:00,
2013-06-17 14:36:00,80.0,58.5,29.33,WSW,247,2.0,16.0,48,0.00,,,0.00,Weather View 32 v70,2013-06-17 18:36:00,
2013-06-17 14:41:00,80.0,59.1,29.34,West,270,6.0,16.0,49,0.00,,,0.00,Weather View 32 v70,2013-06-17 18:41:00,
2013-06-17 14:46:00,80.0,59.1,29.34,West,270,7.0,16.0,49,0.00,,,0.00,Weather View 32 v70,2013-06-17 18:46:00,
2013-06-17 14:51:00,79.0,57.6,29.34,West,270,7.0,16.0,48,0.00,,,0.00,Weather View 32 v70,2013-06-17 18:51:00,
2013-06-17 14:56:00,79.0,58.7,29.34,West,270,5.0,16.0,50,0.00,,,0.00,Weather View 32 v70,2013-06-17 18:56:00,
2013-06-17 15:01:00,78.0,58.3,29.35,West,270,6.0,16.0,51,0.00,,,0.00,Weather View 32 v70,2013-06-17 19:01:00,
2013-06-17 15:06:00,78.0,58.3,29.35,West,270,6.0,16.0,51,0.00,,,0.00,Weather View 32 v70,2013-06-17 19:06:00,
2013-06-17 15:11:00,78.0,58.9,29.36,West,270,5.0,16.0,52,0.00,,,0.00,Weather View 32 v70,2013-06-17 19:11:00,
2013-06-17 15:16:00,77.0,60.0,29.36,West,270,4.0,16.0,56,0.00,,,0.00,Weather View 32 v70,2013-06-17 19:16:00,
2013-06-17 15:21:00,77.0,60.0,29.36,WSW,247,6.0,16.0,56,0.00,,,0.00,Weather View 32 v70,2013-06-17 19:21:00,
2013-06-17 15:26:00,77.0,60.5,29.36,NW,315,8.0,13.0,57,0.00,,,0.00,Weather View 32 v70,2013-06-17 19:26:00,
2013-06-17 15:31:00,77.0,60.0,29.35,West,270,9.0,13.0,56,0.00,,,0.00,Weather View 32 v70,2013-06-17 19:31:00,
2013-06-17 15:36:00,77.0,60.5,29.35,West,270,6.0,13.0,57,0.00,,,0.00,Weather View 32 v70,2013-06-17 19:36:00,
2013-06-17 15:41:00,77.0,59.0,29.35,West,270,5.0,13.0,54,0.00,,,0.00,Weather View 32 v70,2013-06-17 19:41:00,
2013-06-17 15:46:00,77.0,60.0,29.35,West,270,4.0,13.0,56,0.00,,,0.00,Weather View 32 v70,2013-06-17 19:46:00,
2013-06-17 15:51:00,76.0,59.6,29.35,West,270,3.0,13.0,57,0.00,,,0.00,Weather View 32 v70,2013-06-17 19:51:00,
2013-06-17 15:56:00,77.0,60.0,29.35,West,270,6.0,13.0,56,0.00,,,0.00,Weather View 32 v70,2013-06-17 19:56:00,
2013-06-17 16:01:00,78.0,61.0,29.35,West,270,6.0,13.0,56,0.00,,,0.00,Weather View 32 v70,2013-06-17 20:01:00,
2013-06-17 16:06:00,78.0,58.9,29.35,SW,225,7.0,13.0,52,0.00,,,0.00,Weather View 32 v70,2013-06-17 20:06:00,
2013-06-17 16:11:00,78.0,59.4,29.36,West,270,6.0,13.0,53,0.00,,,0.00,Weather View 32 v70,2013-06-17 20:11:00,
2013-06-17 16:16:00,77.0,58.0,29.36,West,270,5.0,13.0,52,0.00,,,0.00,Weather View 32 v70,2013-06-17 20:16:00,
2013-06-17 16:21:00,77.0,60.0,29.37,West,270,1.0,13.0,56,0.00,,,0.00,Weather View 32 v70,2013-06-17 20:21:00,
2013-06-17 16:26:00,76.0,57.6,29.37,North,360,1.0,13.0,53,0.00,,,0.00,Weather View 32 v70,2013-06-17 20:26:00,
2013-06-17 16:31:00,75.0,56.1,29.38,NE,45,0.0,12.0,52,0.00,,,0.00,Weather View 32 v70,2013-06-17 20:31:00,
2013-06-17 16:36:00,74.0,56.2,29.38,East,90,1.0,12.0,54,0.00,,,0.00,Weather View 32 v70,2013-06-17 20:36:00,
2013-06-17 16:41:00,73.0,56.3,29.40,East,90,2.0,12.0,56,0.00,,,0.00,Weather View 32 v70,2013-06-17 20:41:00,
2013-06-17 16:46:00,72.0,56.8,29.40,NE,45,0.0,12.0,59,0.00,,,0.00,Weather View 32 v70,2013-06-17 20:46:00,
2013-06-17 16:51:00,71.0,56.8,29.40,East,90,1.0,12.0,61,0.00,,,0.00,Weather View 32 v70,2013-06-17 20:51:00,
2013-06-17 16:56:00,71.0,58.6,29.40,NE,45,0.0,12.0,65,0.00,,,0.00,Weather View 32 v70,2013-06-17 20:56:00,
2013-06-17 17:01:00,70.0,58.5,29.41,NE,45,1.0,12.0,67,0.00,,,0.00,Weather View 32 v70,2013-06-17 21:01:00,
2013-06-17 17:06:00,69.0,58.8,29.41,NE,45,0.0,12.0,70,0.00,,,0.00,Weather View 32 v70,2013-06-17 21:06:00,
2013-06-17 17:11:00,68.0,59.0,29.43,NE,45,0.0,12.0,73,0.00,,,0.00,Weather View 32 v70,2013-06-17 21:11:00,
2013-06-17 17:16:00,67.0,59.5,29.43,NE,45,0.0,12.0,77,0.00,,,0.00,Weather View 32 v70,2013-06-17 21:16:00,
2013-06-17 17:21:00,67.0,61.3,29.44,West,270,3.0,9.0,82,0.00,,,0.00,Weather View 32 v70,2013-06-17 21:21:00,
2013-06-17 17:26:00,66.0,60.3,29.44,WSW,247,4.0,6.0,82,0.00,,,0.00,Weather View 32 v70,2013-06-17 21:26:00,
2013-06-17 17:31:00,65.0,60.4,29.45,WSW,247,5.0,6.0,85,0.00,,,0.00,Weather View 32 v70,2013-06-17 21:31:00,
2013-06-17 17:36:00,64.0,60.0,29.45,West,270,4.0,6.0,87,0.00,,,0.00,Weather View 32 v70,2013-06-17 21:36:00,
2013-06-17 17:41:00,64.0,61.0,29.45,West,270,3.0,7.0,90,0.00,,,0.00,Weather View 32 v70,2013-06-17 21:41:00,
2013-06-17 17:48:00,63.0,61.2,29.45,West,270,0.0,7.0,94,0.00,,,0.00,Weather View 32 v70,2013-06-17 21:48:00,
2013-06-17 17:53:00,63.0,61.2,29.46,SW,225,2.0,7.0,94,0.00,,,0.00,Weather View 32 v70,2013-06-17 21:53:00,
2013-06-17 17:58:00,63.0,62.1,29.46,SW,225,0.0,7.0,97,0.00,,,0.00,Weather View 32 v70,2013-06-17 21:58:00,
2013-06-17 18:03:00,63.0,62.1,29.44,West,270,3.0,7.0,97,0.00,,,0.00,Weather View 32 v70,2013-06-17 22:03:00,
2013-06-17 18:14:00,62.0,61.1,29.45,West,270,0.0,7.0,97,0.00,,,0.00,Weather View 32 v70,2013-06-17 22:14:00,
2013-06-17 18:19:00,62.0,61.4,29.45,NW,315,0.0,7.0,98,0.00,,,0.00,Weather View 32 v70,2013-06-17 22:19:00,
2013-06-17 18:24:00,63.0,62.4,29.43,West,270,0.0,7.0,98,0.00,,,0.00,Weather View 32 v70,2013-06-17 22:24:00,
2013-06-17 18:29:00,63.0,62.4,29.43,West,270,0.0,7.0,98,0.00,,,0.00,Weather View 32 v70,2013-06-17 22:29:00,
2013-06-17 18:34:00,63.0,62.4,29.42,West,270,0.0,7.0,98,0.00,,,0.00,Weather View 32 v70,2013-06-17 22:34:00,
2013-06-17 18:39:00,63.0,62.4,29.42,West,270,0.0,7.0,98,0.00,,,0.00,Weather View 32 v70,2013-06-17 22:39:00,
2013-06-17 18:44:00,63.0,62.4,29.43,West,270,2.0,4.0,98,0.00,,,0.00,Weather View 32 v70,2013-06-17 22:44:00,
2013-06-17 18:49:00,64.0,63.1,29.43,West,270,2.0,4.0,97,0.00,,,0.00,Weather View 32 v70,2013-06-17 22:49:00,
2013-06-17 18:54:00,64.0,62.8,29.42,WSW,247,3.0,6.0,96,0.00,,,0.00,Weather View 32 v70,2013-06-17 22:54:00,
2013-06-17 18:59:00,64.0,62.8,29.42,WNW,292,2.0,6.0,96,0.00,,,0.00,Weather View 32 v70,2013-06-17 22:59:00,
2013-06-17 19:04:00,64.0,62.8,29.43,West,270,4.0,6.0,96,0.00,,,0.00,Weather View 32 v70,2013-06-17 23:04:00,
2013-06-17 19:09:00,64.0,62.8,29.43,West,270,2.0,6.0,96,0.00,,,0.00,Weather View 32 v70,2013-06-17 23:09:00,
2013-06-17 19:14:00,64.0,63.4,29.43,West,270,3.0,6.0,98,0.00,,,0.00,Weather View 32 v70,2013-06-17 23:14:00,
2013-06-17 19:19:00,64.0,63.4,29.43,West,270,4.0,6.0,98,0.00,,,0.00,Weather View 32 v70,2013-06-17 23:19:00,
2013-06-17 19:24:00,63.0,62.4,29.45,West,270,4.0,6.0,98,0.00,,,0.00,Weather View 32 v70,2013-06-17 23:24:00,
2013-06-17 19:29:00,63.0,62.4,29.45,West,270,3.0,7.0,98,0.00,,,0.00,Weather View 32 v70,2013-06-17 23:29:00,
2013-06-17 19:34:00,63.0,62.4,29.45,West,270,4.0,7.0,98,0.00,,,0.00,Weather View 32 v70,2013-06-17 23:34:00,
2013-06-17 19:39:00,63.0,62.4,29.45,West,270,5.0,8.0,98,0.00,,,0.00,Weather View 32 v70,2013-06-17 23:39:00,
2013-06-17 19:44:00,64.0,63.4,29.46,West,270,4.0,8.0,98,0.00,,,0.00,Weather View 32 v70,2013-06-17 23:44:00,
2013-06-17 19:49:00,63.0,62.4,29.46,West,270,4.0,8.0,98,0.00,,,0.00,Weather View 32 v70,2013-06-17 23:49:00,
2013-06-17 19:54:00,63.0,62.4,29.46,West,270,4.0,8.0,98,0.00,,,0.00,Weather View 32 v70,2013-06-17 23:54:00,
2013-06-17 19:59:00,63.0,62.4,29.46,West,270,4.0,8.0,98,0.00,,,0.00,Weather View 32 v70,2013-06-17 23:59:00,
2013-06-17 20:04:00,63.0,62.4,29.47,West,270,6.0,8.0,98,0.00,,,0.00,Weather View 32 v70,2013-06-18 00:04:00,
2013-06-17 20:09:00,63.0,62.4,29.47,NW,315,3.0,8.0,98,0.00,,,0.00,Weather View 32 v70,2013-06-18 00:09:00,
2013-06-17 20:14:00,63.0,62.4,29.47,NW,315,6.0,8.0,98,0.00,,,0.00,Weather View 32 v70,2013-06-18 00:14:00,
2013-06-17 20:19:00,63.0,62.4,29.47,NW,315,1.0,8.0,98,0.00,,,0.00,Weather View 32 v70,2013-06-18 00:19:00,
2013-06-17 20:24:00,62.0,61.4,29.47,NW,315,4.0,8.0,98,0.00,,,0.00,Weather View 32 v70,2013-06-18 00:24:00,
2013-06-17 20:29:00,62.0,61.4,29.47,NW,315,2.0,8.0,98,0.00,,,0.00,Weather View 32 v70,2013-06-18 00:29:00,
2013-06-17 20:34:00,62.0,61.4,29.47,West,270,4.0,8.0,98,0.00,,,0.00,Weather View 32 v70,2013-06-18 00:34:00,
2013-06-17 20:39:00,62.0,61.4,29.47,WNW,292,0.0,8.0,98,0.00,,,0.00,Weather View 32 v70,2013-06-18 00:39:00,
2013-06-17 20:44:00,62.0,61.4,29.47,West,270,4.0,8.0,98,0.00,,,0.00,Weather View 32 v70,2013-06-18 00:44:00,
2013-06-17 20:49:00,62.0,61.4,29.47,West,270,4.0,8.0,98,0.00,,,0.00,Weather View 32 v70,2013-06-18 00:49:00,
2013-06-17 20:54:00,62.0,61.4,29.47,West,270,3.0,8.0,98,0.00,,,0.00,Weather View 32 v70,2013-06-18 00:54:00,
2013-06-17 20:59:00,62.0,61.4,29.47,West,270,2.0,8.0,98,0.00,,,0.00,Weather View 32 v70,2013-06-18 00:59:00,
2013-06-17 21:04:00,62.0,61.4,29.47,SW,225,0.0,8.0,98,0.00,,,0.00,Weather View 32 v70,2013-06-18 01:04:00,
2013-06-17 21:09:00,62.0,61.4,29.48,West,270,1.0,7.0,98,0.00,,,0.00,Weather View 32 v70,2013-06-18 01:09:00,
2013-06-17 21:14:00,61.0,60.4,29.48,West,270,3.0,7.0,98,0.00,,,0.00,Weather View 32 v70,2013-06-18 01:14:00,
2013-06-17 21:19:00,61.0,60.4,29.48,West,270,4.0,7.0,98,0.00,,,0.00,Weather View 32 v70,2013-06-18 01:19:00,
2013-06-17 21:24:00,61.0,60.4,29.50,West,270,2.0,6.0,98,0.00,,,0.00,Weather View 32 v70,2013-06-18 01:24:00,
2013-06-17 22:07:00,61.0,60.4,29.51,WNW,292,2.0,4.0,98,0.00,,,0.00,Weather View 32 v70,2013-06-18 02:07:00,
2013-06-17 22:12:00,61.0,60.4,29.50,West,270,3.0,5.0,98,0.00,,,0.00,Weather View 32 v70,2013-06-18 02:12:00,
2013-06-17 22:17:00,61.0,60.4,29.50,West,270,1.0,5.0,98,0.00,,,0.00,Weather View 32 v70,2013-06-18 02:17:00,
2013-06-17 22:22:00,61.0,60.4,29.50,West,270,3.0,5.0,98,0.00,,,0.00,Weather View 32 v70,2013-06-18 02:22:00,
2013-06-17 22:27:00,61.0,60.4,29.50,West,270,3.0,5.0,98,0.00,,,0.00,Weather View 32 v70,2013-06-18 02:27:00,
2013-06-17 22:32:00,61.0,60.4,29.49,West,270,3.0,5.0,98,0.00,,,0.00,Weather View 32 v70,2013-06-18 02:32:00,
2013-06-17 22:37:00,61.0,60.4,29.49,WNW,292,3.0,5.0,98,0.00,,,0.00,Weather View 32 v70,2013-06-18 02:37:00,
2013-06-17 22:42:00,61.0,60.4,29.49,WNW,292,3.0,5.0,98,0.00,,,0.00,Weather View 32 v70,2013-06-18 02:42:00,
2013-06-17 22:47:00,61.0,60.4,29.49,WNW,292,2.0,5.0,98,0.00,,,0.00,Weather View 32 v70,2013-06-18 02:47:00,
2013-06-17 22:52:00,61.0,60.4,29.49,WNW,292,3.0,6.0,98,0.00,,,0.00,Weather View 32 v70,2013-06-18 02:52:00,
2013-06-17 22:57:00,61.0,60.4,29.49,West,270,1.0,6.0,98,0.00,,,0.00,Weather View 32 v70,2013-06-18 02:57:00,
2013-06-17 23:02:00,60.0,59.4,29.49,West,270,3.0,6.0,98,0.00,,,0.00,Weather View 32 v70,2013-06-18 03:02:00,
2013-06-17 23:07:00,60.0,59.4,29.49,West,270,4.0,6.0,98,0.00,,,0.00,Weather View 32 v70,2013-06-18 03:07:00,
2013-06-17 23:12:00,60.0,59.4,29.49,West,270,1.0,6.0,98,0.00,,,0.00,Weather View 32 v70,2013-06-18 03:12:00,
2013-06-17 23:17:00,60.0,59.4,29.49,West,270,1.0,6.0,98,0.00,,,0.00,Weather View 32 v70,2013-06-18 03:17:00,
2013-06-17 23:22:00,60.0,59.4,29.49,West,270,1.0,6.0,98,0.00,,,0.00,Weather View 32 v70,2013-06-18 03:22:00,
2013-06-17 23:27:00,60.0,59.4,29.49,West,270,2.0,6.0,98,0.00,,,0.00,Weather View 32 v70,2013-06-18 03:27:00,
2013-06-17 23:32:00,60.0,59.4,29.49,West,270,3.0,6.0,98,0.00,,,0.00,Weather View 32 v70,2013-06-18 03:32:00,
2013-06-17 23:37:00,60.0,59.4,29.49,West,270,1.0,6.0,98,0.00,,,0.00,Weather View 32 v70,2013-06-18 03:37:00,
2013-06-17 23:42:00,60.0,59.4,29.49,West,270,2.0,6.0,98,0.00,,,0.00,Weather View 32 v70,2013-06-18 03:42:00,
2013-06-17 23:47:00,60.0,59.4,29.49,West,270,1.0,6.0,98,0.00,,,0.00,Weather View 32 v70,2013-06-18 03:47:00,
2013-06-17 23:52:00,60.0,59.4,29.49,West,270,3.0,6.0,98,0.00,,,0.00,Weather View 32 v70,2013-06-18 03:52:00,
2013-06-17 23:57:00,60.0,59.4,29.49,West,270,0.0,5.0,98,0.00,,,0.00,Weather View 32 v70,2013-06-18 03:57:00,